Vertical_Velocity
-2 -1 1 1 -1 1 3 0 3 -0 0 -1 0 -1 -0 2 4 3 -5 -0 5 -1 -5 3 2 0 -2 -0 5 -2 2 -0 1 1 3 -1 -3 -2 -0 1 -1 0 1
-1 1 4 -1 -0 3 2 -2 2 1 0 1 -0 1 -0 2 1 6 0 -1 -1 -5 -2 -1 0 -1 1 1 3 0 -1 2 -4 -1 1 -0 -0 -2 4 2 3 -5 -0
-2 -0 1 1 -1 2 -0 1 -1 -1 1 2 1 5 6 -7 5 2 -2 -0 -1 -0 1 -0 -1 0 1 3 2 3 -1 2 -0 3 -3 -1 -3 3 -1 1 -1 0 0
2 1 -1 1 0 4 4 2 -0 2 -1 1 -3 -14 7 15 9 2 1 -1 -3 0 2 -0 1 1 0 2 0 1 -0 4 1 -2 2 0 -1 -2 0 2 1 -1 -3
0 2 -1 2 -1 1 2 1 0 3 -2 4 2 -15 -3 6 1 2 2 4 1 -1 -2 0 -2 -1 0 -2 -0 -2 1 -1 -3 -0 0 1 -1 -2 -2 -0 -0 2 1
0 3 1 1 0 1 -2 2 -0 5 7 4 4 6 7 14 21 17 3 0 1 0 1 -1 -0 -1 -0 -0 1 2 -1 -1 0 -0 2 -1 -1 -0 -0 2 -0 -2 -2
-0 1 1 0 4 0 -1 3 0 0 1 5 3 9 10 -39 8 -1 0 1 1 -2 -0 1 1 -1 1 -0 0 1 -0 -0 0 1 0 1 -0 -1 -3 -1 0 3 1
1 2 1 0 -1 5 2 3 1 -0 1 1 1 6 -0 1 -7 -2 3 2 2 -1 -1 1 0 1 0 0 -1 0 -0 -0 -1 1 -1 -0 -1 -1 3 2 -0 0 -2
1 3 2 -2 -2 3 2 -1 -1 2 3 -9 -8 5 8 8 9 2 2 1 0 -0 -2 1 1 0 0 0 -1 0 1 -1 -0 1 2 2 0 1 0 1 0 -1 1
0 5 1 0 -0 1 -0 1 1 -2 -7 -2 4 6 7 2 -1 3 -4 2 -0 1 -2 0 -1 -1 1 2 -0 2 2 -0 1 -2 0 -0 3 3 -1 0 1 0 -1
2 3 3 1 -1 1 -2 3 1 -11 -5 -2 -3 -4 -3 2 1 2 -3 -1 5 -0 -2 -0 -1 0 -0 2 2 -0 0 -0 1 1 0 0 2 1 1 0 0 -2 1
-1 -2 5 -1 -0 -3 0 -6 -9 -1 0 -0 -3 2 1 3 1 -0 -3 1 2 2 0 -4 3 1 1 1 0 -0 3 1 2 3 -1 0 1 -0 1 1 -1 -1 2
3 -2 2 -0 -0 2 -0 4 3 1 -3 1 -1 1 1 -1 0 -1 -1 1 2 -0 0 0 2 0 1 0 -0 2 -1 2 -0 0 -2 1 0 -1 -0 1 1 -0 0
-1 -0 0 0 -1 1 -1 -1 0 -2 0 1 1 2 2 -1 -1 0 -0 2 -1 1 -2 1 2 2 1 1 3 1 1 -1 1 1 -2 0 0 -0 1 4 -1 0 -1
4 -4 1 1 -2 3 -5 0 -1 1 0 1 -0 1 2 0 1 1 -1 1 -1 -1 2 1 1 0 1 1 -1 -0 -1 0 -0 1 -0 2 -2 3 -1 -1 -0 -2 -2
-5 1 1 3 2 2 -2 1 -0 1 0 0 -1 0 2 1 4 -2 0 -0 -3 -0 -1 1 1 0 1 -0 -0 0 1 -0 -0 4 -1 2 -1 1 -5 1 -2 -1 -1
2 1 4 1 1 1 -1 -0 -1 0 -1 0 -0 0 -0 1 1 1 1 0 -0 1 -0 1 0 1 -1 1 0 -0 0 -1 1 -1 -1 -1 -3 -2 1 -0 -4 -1 -2
3 1 1 1 1 1 1 -0 -1 -1 -0 -1 -0 0 0 -1 1 -1 -1 -0 -1 -1 -1 -2 1 0 0 -1 -1 -0 -0 1 -1 -0 -1 -3 1 0 -1 -1 -1 -2 -2
3 2 -1 1 2 1 1 -1 -1 -2 -2 -0 -2 -1 -1 -0 -2 -0 -1 -1 0 -0 -1 -1 -1 -1 -1 -1 -1 -1 0 -1 -1 -2 -2 1 -0 0 -0 -0 -3 0 -0
0 2 2 1 1 -3 1 -1 -1 0 -1 0 -2 -0 -1 -2 -0 -1 -0 -1 1 -1 -2 -0 -1 0 0 -0 0 1 -1 -1 0 -0 -2 -1 -0 -0 0 -1 -0 -0 -2
0 -0 2 -0 0 -2 3 -0 -0 -0 -1 1 -1 -1 -1 1 -0 -1 -0 2 0 1 0 -0 -1 -0 -1 -1 -1 -1 -2 -1 0 -0 0 -0 -0 0 -1 -1 -2 -1 -1
1 1 1 -2 -2 -0 1 -1 -1 -1 -1 -2 0 -0 -1 -0 -0 -1 -2 -0 -0 -1 -0 0 0 1 1 1 0 0 0 -0 -0 -0 -0 -1 -1 -1 -0 -1 -1 -1 -1
-5 -2 1 -2 -2 -0 0 0 -1 -1 -0 -0 1 -0 -1 -1 0 -1 -1 -0 0 0 -0 -0 -0 1 1 1 1 0 1 -1 0 -0 -0 -0 -0 -1 -1 -0 0 0 -0
-0 1 1 -1 -2 1 -0 0 2 2 1 0 -1 0 0 -1 -1 0 -1 -1 0 1 0 -0 0 0 0 1 -1 1 0 1 -0 0 -0 -0 -1 -0 -0 -0 -0 0 -0
-0 3 4 1 0 2 1 2 2 1 3 -1 0 -0 1 -1 -1 1 1 0 1 -0 0 1 0 -0 -0 1 0 1 1 1 1 -0 1 2 -0 -1 0 1 0 -1 -1
2 2 2 -1 -0 -2 -0 -1 -2 -2 -0 -1 2 0 1 1 1 -0 1 1 0 1 0 -1 0 1 -1 -1 1 1 1 0 2 1 0 -0 0 1 -1 0 -1 -1 -1
Height
3159 3160 3162 3165 3166 3167 3169 3171 3172 3173 3174 3175 3176 3176 3178 3177 3179 3178 3180 3180 3181 3181 3181 3182 3182 3181 3181 3181 3180 3180 3180 3180 3180 3181 3181 3181 3181 3180 3181 3180 3180 3179 3179
3156 3159 3162 3165 3166 3167 3169 3171 3172 3173 3174 3175 3177 3177 3178 3180 3180 3180 3181 3181 3183 3184 3183 3183 3183 3183 3183 3184 3183 3183 3183 3183 3184 3184 3185 3184 3184 3184 3184 3183 3183 3183 3183
3156 3160 3162 3165 3166 3168 3169 3171 3173 3173 3175 3176 3177 3179 3180 3177 3181 3182 3183 3184 3185 3186 3186 3186 3185 3185 3185 3186 3186 3186 3186 3187 3187 3188 3188 3187 3187 3187 3187 3187 3186 3186 3184
3157 3160 3163 3165 3166 3168 3170 3172 3173 3175 3175 3176 3178 3177 3179 3180 3181 3183 3184 3185 3185 3186 3188 3188 3187 3187 3187 3188 3189 3189 3190 3190 3190 3190 3191 3190 3190 3190 3189 3189 3188 3187 3186
3157 3160 3162 3165 3167 3168 3170 3172 3174 3176 3177 3178 3177 3178 3180 3180 3182 3184 3184 3185 3186 3187 3188 3189 3189 3190 3189 3190 3191 3192 3192 3192 3193 3193 3193 3192 3192 3192 3192 3190 3189 3189 3188
3157 3160 3163 3165 3168 3169 3171 3172 3174 3176 3177 3178 3178 3178 3179 3179 3181 3180 3184 3187 3187 3188 3188 3189 3190 3191 3191 3192 3194 3194 3194 3194 3195 3195 3195 3194 3194 3194 3193 3192 3191 3190 3189
3158 3160 3162 3165 3167 3170 3172 3173 3174 3176 3178 3179 3180 3180 3180 3177 3178 3182 3185 3187 3188 3189 3189 3190 3191 3193 3194 3195 3196 3196 3196 3197 3197 3197 3197 3196 3196 3195 3194 3193 3192 3191 3190
3159 3160 3163 3165 3168 3170 3172 3174 3175 3176 3178 3179 3180 3181 3183 3184 3184 3186 3186 3186 3188 3189 3191 3192 3193 3194 3196 3197 3197 3198 3199 3198 3198 3197 3198 3197 3196 3196 3195 3194 3193 3192 3191
3158 3161 3163 3165 3167 3169 3172 3174 3175 3177 3178 3178 3181 3184 3185 3185 3185 3186 3187 3187 3188 3190 3191 3193 3195 3195 3197 3198 3199 3199 3199 3200 3199 3199 3199 3198 3197 3197 3196 3195 3194 3193 3191
3158 3161 3163 3166 3168 3171 3173 3175 3175 3178 3181 3181 3183 3184 3185 3186 3186 3185 3186 3187 3189 3190 3192 3194 3196 3197 3198 3199 3199 3200 3200 3200 3201 3200 3200 3199 3198 3197 3196 3195 3194 3193 3192
3158 3161 3163 3167 3170 3172 3171 3172 3174 3179 3182 3183 3184 3185 3186 3186 3187 3187 3187 3187 3189 3191 3193 3195 3196 3197 3198 3199 3200 3201 3201 3201 3201 3201 3201 3200 3199 3198 3197 3196 3195 3194 3193
3158 3161 3164 3167 3170 3172 3173 3174 3177 3180 3181 3184 3186 3188 3188 3188 3187 3187 3187 3188 3190 3192 3194 3196 3198 3198 3199 3200 3201 3202 3202 3202 3202 3202 3201 3200 3200 3199 3197 3197 3197 3195 3195
3158 3161 3165 3168 3171 3173 3175 3177 3178 3181 3183 3184 3186 3187 3188 3188 3188 3188 3188 3189 3191 3193 3195 3196 3198 3199 3200 3201 3201 3202 3202 3203 3202 3202 3202 3202 3201 3200 3199 3199 3198 3197 3196
3157 3160 3165 3168 3171 3173 3176 3178 3179 3181 3182 3184 3185 3186 3187 3188 3188 3189 3189 3191 3193 3195 3196 3197 3199 3199 3200 3201 3201 3202 3203 3203 3203 3202 3203 3202 3201 3201 3200 3200 3198 3196 3195
3156 3161 3165 3167 3170 3173 3175 3177 3179 3181 3183 3184 3185 3186 3186 3188 3189 3190 3191 3192 3194 3195 3197 3198 3199 3200 3200 3201 3202 3203 3203 3204 3203 3204 3203 3203 3203 3201 3201 3199 3197 3195 3194
3155 3161 3164 3167 3170 3173 3175 3176 3179 3181 3183 3184 3184 3185 3185 3188 3189 3190 3192 3193 3195 3196 3197 3198 3199 3200 3201 3201 3202 3202 3203 3204 3204 3203 3203 3202 3202 3201 3200 3199 3197 3195 3193
3155 3160 3164 3167 3169 3172 3174 3176 3178 3180 3182 3183 3184 3185 3186 3187 3190 3191 3192 3193 3195 3196 3196 3198 3198 3199 3200 3201 3202 3203 3203 3203 3203 3203 3202 3202 3201 3200 3198 3197 3196 3194 3193
3155 3159 3163 3166 3168 3171 3173 3176 3178 3180 3181 3183 3184 3185 3186 3187 3189 3191 3192 3193 3194 3195 3196 3197 3198 3199 3200 3200 3201 3201 3201 3202 3202 3201 3201 3200 3199 3198 3197 3196 3195 3193 3192
3155 3158 3162 3164 3167 3170 3172 3175 3177 3179 3181 3182 3183 3184 3185 3186 3188 3190 3191 3192 3193 3195 3196 3196 3197 3198 3198 3199 3199 3199 3200 3200 3200 3200 3200 3199 3198 3197 3196 3195 3194 3192 3190
3154 3157 3159 3163 3165 3168 3171 3173 3176 3177 3179 3180 3181 3182 3183 3185 3186 3188 3190 3191 3192 3193 3194 3194 3195 3195 3196 3196 3197 3197 3197 3198 3198 3197 3198 3197 3196 3195 3194 3193 3192 3190 3188
3151 3154 3157 3160 3163 3167 3170 3172 3175 3176 3177 3178 3179 3180 3181 3183 3185 3186 3187 3189 3190 3190 3191 3192 3192 3193 3194 3194 3195 3195 3195 3195 3195 3195 3194 3193 3193 3192 3192 3191 3190 3188 3186
3149 3152 3155 3157 3161 3164 3168 3170 3171 3173 3174 3176 3177 3178 3180 3181 3182 3184 3185 3186 3187 3188 3188 3189 3190 3190 3190 3191 3191 3192 3192 3193 3192 3191 3191 3191 3190 3190 3189 3188 3187 3185 3183
3146 3149 3153 3155 3159 3162 3165 3166 3167 3169 3171 3174 3176 3177 3178 3179 3181 3182 3183 3183 3184 3185 3185 3186 3187 3188 3188 3188 3188 3189 3189 3189 3188 3188 3188 3188 3187 3186 3186 3184 3183 3181 3179
3146 3149 3152 3153 3156 3159 3161 3163 3165 3168 3170 3172 3173 3174 3175 3177 3178 3179 3180 3181 3181 3182 3182 3183 3184 3184 3185 3185 3185 3185 3185 3185 3185 3185 3185 3184 3183 3182 3181 3180 3179 3177 3175
3143 3145 3147 3150 3152 3155 3157 3160 3161 3164 3166 3168 3170 3171 3172 3173 3174 3175 3176 3177 3177 3177 3178 3179 3180 3180 3180 3181 3182 3182 3181 3182 3182 3181 3180 3180 3179 3178 3177 3176 3175 3173 3172
3138 3141 3143 3145 3147 3150 3152 3155 3158 3160 3163 3164 3166 3167 3169 3170 3170 3171 3172 3173 3173 3174 3174 3174 3175 3176 3176 3177 3178 3178 3178 3178 3178 3176 3176 3175 3175 3174 3173 3172 3171 3169 3167